User: anonymous   Login
Location: Unspecified
(0.0000°N, 0.0000°E)
Time: 01:08:51
(UTC+00:00)
Language:

UNISAT 2 - Orbit

View from above orbital plane
View from above orbital plane
View from above satellite
View from above satellite

Ground track
Ground track

The orbit data is extracted from the following two-line orbital elements,

1 27608U 02058D   21023.28994630 -.00000031  00000-0  15167-4 0  9996
2 27608  64.5568 333.6055 0017595  44.1766 316.0739 14.78127730975043
Epoch (UTC): 23 January 2021 06:57:31
Eccentricity: 0.0017595
inclination: 64.5568°
perigee height: 623 km
apogee height: 647 km
right ascension of ascending node: 333.6055°
argument of perigee: 44.1766°
revolutions per day: 14.78127730
mean anomaly at epoch: 316.0739°
orbit number at epoch: 97504

The dashed part of the orbit path shows where the satellite is in the earth's shadow,  

DLR